Location: Harwich
(41.6860°N, 70.0760°W)
Time: 22:34:41
(UTC-04:00)

Tiangong - Visible Passes

Search period start: 04 October 2022 00:00
Search period end: 14 October 2022 00:00
Orbit: 383 x 385 km, 41.5° (Epoch: 04 October)

Date Brightness Start Highest point End Pass type
(mag) Time Alt. Az. Time Alt. Az. Time Alt. Az.
06 Oct 0.3 19:47:49 10° SSW 19:48:36 14° S 19:48:36 14° S visible
07 Oct 0.3 18:49:31 10° SSE 18:50:19 11° SE 18:51:08 10° SE visible
07 Oct 0.8 20:23:36 10° SW 20:24:03 13° SW 20:24:03 13° SW visible
08 Oct -1.0 19:23:56 10° SW 19:26:42 28° SSE 19:27:06 27° SE visible
09 Oct -0.8 20:00:07 10° WSW 20:02:12 36° SW 20:02:12 36° SW visible
10 Oct -1.5 19:00:08 10° SW 19:03:10 43° SSE 19:04:59 20° E visible
10 Oct 1.1 20:36:42 10° W 20:37:10 13° W 20:37:10 13° W visible
11 Oct -2.3 19:36:29 10° WSW 19:39:39 79° S 19:39:48 75° SE visible
12 Oct -1.9 18:36:16 10° WSW 18:39:24 61° SSE 18:42:22 11° E visible
12 Oct 0.1 20:13:00 10° W 20:14:32 26° W 20:14:32 26° W visible
13 Oct -2.2 19:12:39 10° W 19:15:48 88° S 19:17:00 35° E visible
